FALCON 9 R/B, 58996

Orbit data source: Space-Track

FALCON 9 R/B, 58996 is space debris in HEO originally from a launch on Tue, 20 Feb 2024 UTC launched from the Air Force Eastern Test Range (AFETR). Debris objects in space refer to the collection of defunct objects orbiting the Earth. Examples of debris include non-operational satellites, rocket bodies, and fragments generated from explosions, collisions, or faulty payload assembly.

Loading next visibility...
Identifier
58996, 2024-035B
Orbit
HEO
Country
Flag of USUS
Related business
Manufacturer
SpaceX
Mission
Spacecraft
Bus & Motor
F9ST2, Unknown motor
Mass
~4,000 kg wet, ~4,000 kg dry
Launch date (UTC)
2024-02-20 (2 years ago)
Launch vehicle
Unknown
Launch site
Air Force Eastern Test Range (AFETR)
Object type
Payload
Rocket body
Debris
Shape & HBR
Cyl, 7.8 m
Radar Cross Section
39.980 m², Large (>1 m²)

Expand to show TLE details & history
Last TLE update: 1 day ago

TLE from 1 day ago
0 FALCON 9 R/B
1 58996U 24035B   25314.83476675  .00000903  00000-0  47253-2 0  9997
2 58996  18.7781 147.7031 8003481  69.8364 354.2717  1.39582773  8758
Epoch: 2025-11-10T20:02Z
TLE epoch observation values (Epoch: 2025-11-10T20:02:03.847Z)
Latitude
-0.00008°
Longitude
156.98866°
Altitude
3,094.874 km
Speed
8.506 km/s
True Right ascension
09h 50m 56s
True Declination
0° 00' 00"
Sunlit
Object was in daylight at epoch
Visualization orbit readout
Latitude
Unknown
Longitude
Unknown
Altitude
Unknown
Speed
Unknown
Apparent Right ascension
Unknown
Apparent Declination
Unknown
Sunlit
N/A
Visualization observer readout
Local Sidereal Time
01:48:44
Azimuth
Unknown
Elevation
Unknown
Doppler factor
Unknown
Orbital elements
Apogee altitude
54,519.847 km
Perigee altitude
375.223 km
Semi-major axis
33,825.672 km
Eccentricity
0.80035
Inclination
18.7781°
RAAN
147.7031°
Arg. of periapsis
69.8364°
True anomaly
291.84217°
Mean anomaly
354.2717°
Eccentric anomaly
334.60797°
Mean motion
0.34888 °/min
Orbital period
1,031.88 mins
BSTAR
0.0047253
Loading maneuver chart data...
Computing Atmospheric mass density...
Loading historical data...
Loading historical data...
Loading historical data...
Loading historical data...
Loading historical data...
Loading historical data...
Loading historical data...
Other satellites on launch #35 in the year 2024 (2024-02-20 UTC)

Documentation

Showing up to 5 results
|